Galax, VA

5:50 PM EST on December 17, 2017 (GMT -0500)
Twin County

Weather History for KHLX - January, 2014

Change the Weather History Date:

Friday, January 3, 2014

  Actual Average (KBLF) Record (KBLF)
Temperature  
Mean Temperature 14 °F -  
Max Temperature 19 °F 41 °F 69 °F (2000)
Min Temperature 8 °F 28 °F -5 °F (1979)
Degree Days  
Heating Degree Days 52    
Moisture  
Dew Point -1 °F    
Average Humidity 53    
Maximum Humidity 67    
Minimum Humidity 30    
Precipitation  
Precipitation 0.00 in - - ()
Sea Level Pressure  
Sea Level Pressure 30.14 in    
Wind  
Wind Speed 19 mph (NW)    
Max Wind Speed 33 mph    
Max Gust Speed 45 mph    
Visibility 10 miles    
Events Snow    
Averages and records for this station are not official NWS values.
T = Trace of Precipitation, MM = Missing Value Source: NWS Daily Summary

Daily Weather History Graph

Daily Weather History Graph

Search for Another Location

Airport or City:

Trip Planner

Search our weather history database for the weather conditions in past years. The results will help you decide how hot, cold, wet, or windy it might be!

Date:

Astronomy

Jan. 03, 2014 Rise Set
Actual Time 7:36 AM EST 5:19 PM EST
Civil Twilight 7:07 AM EST 5:48 PM EST
Nautical Twilight 6:35 AM EST 6:20 PM EST
Astronomical Twilight 6:03 AM EST 6:52 PM EST
Moon 9:05 AM EST (1/3) 8:21 PM EST (1/3)
Length of Visible Light 10h 40m
Length of Day
9h 43m
Waxing Crescent, 8% of the Moon is Illuminated
Jan 3
Waxing Crescent
Jan 7
First Quarter
Jan 15
Full
Jan 24
Last Quarter
Jan 30
New

Hourly Weather History & Observations

Time (EST) Temp. Windchill Dew Point Humidity Pressure Visibility Wind Dir Wind Speed Gust Speed Precip Events Conditions
12:15 AM 19.4 °F 2.5 °F 8.6 °F 63% 29.76 in 10.0 mi WNW 23.0 mph 36.8 mph N/A Snow Light Snow
12:35 AM 17.6 °F 0.1 °F 6.8 °F 63% 29.77 in - WNW 23.0 mph 32.2 mph N/A   Unknown
12:55 AM 17.6 °F -2.5 °F 5.0 °F 58% 29.77 in 10.0 mi NW 32.2 mph 39.1 mph N/A   Scattered Clouds
1:15 AM 15.8 °F -5.2 °F 3.2 °F 58% 29.78 in 10.0 mi NW 33.4 mph 41.4 mph N/A   Scattered Clouds
1:35 AM 15.8 °F -3.4 °F 1.4 °F 53% 29.79 in 10.0 mi NW 26.5 mph 39.1 mph N/A   Scattered Clouds
1:55 AM 15.8 °F -3.7 °F 1.4 °F 53% 29.81 in 10.0 mi NW 27.6 mph 40.3 mph N/A   Scattered Clouds
2:15 AM 14.0 °F -5.5 °F 3.2 °F 62% 29.82 in 10.0 mi NW 25.3 mph 39.1 mph N/A Snow Light Snow
2:35 AM 12.2 °F -8.6 °F 3.2 °F 67% 29.84 in 10.0 mi NW 27.6 mph 39.1 mph N/A   Scattered Clouds
2:55 AM 12.2 °F -8.2 °F 1.4 °F 62% 29.88 in 7.0 mi NW 26.5 mph 36.8 mph N/A   Mostly Cloudy
3:15 AM 10.4 °F -11.7 °F -0.4 °F 62% 29.91 in 10.0 mi NW 29.9 mph 44.9 mph N/A   Scattered Clouds
3:35 AM 10.4 °F -7.7 °F -0.4 °F 62% 29.93 in 10.0 mi WNW 18.4 mph 33.4 mph N/A   Scattered Clouds
3:55 AM 10.4 °F -11.4 °F -0.4 °F 62% 29.93 in 10.0 mi NW 28.8 mph 36.8 mph N/A   Scattered Clouds
4:15 AM 10.4 °F -9.9 °F -0.4 °F 62% 29.94 in 10.0 mi WNW 24.2 mph 34.5 mph N/A   Clear
4:35 AM 10.4 °F -9.9 °F -0.4 °F 62% 29.94 in 10.0 mi NW 24.2 mph 34.5 mph N/A   Clear
4:55 AM 10.4 °F -11.4 °F -0.4 °F 62% 29.96 in 10.0 mi NW 28.8 mph 36.8 mph N/A   Clear
5:15 AM 10.4 °F -9.5 °F -2.2 °F 57% 29.97 in 10.0 mi NW 23.0 mph 34.5 mph N/A   Clear
5:35 AM 10.4 °F -10.7 °F -2.2 °F 57% 30.00 in 10.0 mi NW 26.5 mph 36.8 mph N/A   Clear
5:55 AM 10.4 °F -9.9 °F -2.2 °F 57% 30.01 in 10.0 mi NW 24.2 mph 34.5 mph N/A   Clear
6:15 AM 10.4 °F -9.9 °F -0.4 °F 62% 30.02 in 10.0 mi NW 24.2 mph 33.4 mph N/A   Clear
6:35 AM 8.6 °F -10.5 °F -0.4 °F 67% 30.03 in 10.0 mi NW 19.6 mph 32.2 mph N/A   Clear
6:55 AM 8.6 °F -10.5 °F -2.2 °F 62% 30.04 in 10.0 mi NNW 19.6 mph 32.2 mph N/A   Clear
7:15 AM 8.6 °F -10.5 °F -0.4 °F 67% 30.06 in 10.0 mi NW 19.6 mph 25.3 mph N/A   Clear
7:35 AM 8.6 °F -10.5 °F -0.4 °F 67% 30.08 in 10.0 mi NW 19.6 mph 33.4 mph N/A   Clear
7:55 AM 8.6 °F -8.9 °F -0.4 °F 67% 30.09 in 10.0 mi NW 16.1 mph 21.9 mph N/A   Clear
8:15 AM 10.4 °F -7.7 °F -0.4 °F 62% 30.09 in 10.0 mi NNW 18.4 mph 26.5 mph N/A   Scattered Clouds
8:35 AM 10.4 °F -9.5 °F -0.4 °F 62% 30.09 in 10.0 mi NNW 23.0 mph 27.6 mph N/A   Clear
8:55 AM 10.4 °F -8.2 °F -0.4 °F 62% 30.11 in 10.0 mi NW 19.6 mph 26.5 mph N/A   Clear
9:15 AM 10.4 °F -7.7 °F -0.4 °F 62% 30.13 in 10.0 mi NW 18.4 mph 28.8 mph N/A   Clear
9:35 AM 10.4 °F -8.6 °F -0.4 °F 62% 30.14 in 10.0 mi NW 20.7 mph 31.1 mph N/A   Clear
9:55 AM 12.2 °F -4.8 °F -0.4 °F 57% 30.15 in 10.0 mi NNW 17.3 mph 27.6 mph N/A   Clear
10:15 AM 12.2 °F -4.8 °F -2.2 °F 53% 30.16 in 10.0 mi NNW 17.3 mph 28.8 mph N/A   Clear
10:35 AM 12.2 °F -5.3 °F -2.2 °F 53% 30.18 in 10.0 mi NNW 18.4 mph 28.8 mph N/A   Clear
10:55 AM 12.2 °F -7.5 °F -2.2 °F 53% 30.17 in 10.0 mi NNW 24.2 mph 31.1 mph N/A   Clear
11:15 AM 12.2 °F -5.8 °F -2.2 °F 53% 30.20 in 10.0 mi NW 19.6 mph 27.6 mph N/A   Clear
11:35 AM 14.0 °F -0.8 °F -2.2 °F 49% 30.21 in 10.0 mi NNW 13.8 mph 17.3 mph N/A   Clear
11:55 AM 14.0 °F -0.8 °F -2.2 °F 49% 30.20 in 10.0 mi NW 13.8 mph 23.0 mph N/A   Clear
12:15 PM 15.8 °F 3.4 °F -2.2 °F 45% 30.21 in 10.0 mi NNW 10.4 mph 19.6 mph N/A   Clear
12:35 PM 15.8 °F 1.4 °F -2.2 °F 45% 30.22 in 10.0 mi NNW 13.8 mph 20.7 mph N/A   Clear
12:55 PM 15.8 °F 5.1 °F -5.8 °F 38% 30.22 in 10.0 mi NW 8.1 mph - N/A   Clear
1:15 PM 17.6 °F 5.7 °F -5.8 °F 35% 30.23 in 10.0 mi NNW 10.4 mph 16.1 mph N/A   Clear
1:35 PM 17.6 °F 5.7 °F -2.2 °F 42% 30.23 in 10.0 mi NNW 10.4 mph - N/A   Clear
1:55 PM 17.6 °F 6.4 °F -5.8 °F 35% 30.23 in 10.0 mi NNW 9.2 mph - N/A   Clear
2:15 PM 17.6 °F 3.7 °F -7.6 °F 32% 30.23 in 10.0 mi NW 13.8 mph - N/A   Clear
2:35 PM 19.4 °F 6.6 °F -7.6 °F 30% 30.23 in 10.0 mi NW 12.7 mph - N/A   Clear
2:55 PM 19.4 °F 7.2 °F -2.2 °F 39% 30.24 in 10.0 mi West 11.5 mph - N/A   Clear
3:15 PM 19.4 °F 9.5 °F -2.2 °F 39% 30.25 in 10.0 mi West 8.1 mph - N/A   Clear
3:35 PM 19.4 °F 6.6 °F -2.2 °F 39% 30.26 in 10.0 mi WNW 12.7 mph - N/A   Clear
3:55 PM 19.4 °F 8.6 °F -2.2 °F 39% 30.26 in 10.0 mi WNW 9.2 mph - N/A   Clear
4:15 PM 19.4 °F 9.5 °F -2.2 °F 39% 30.27 in 10.0 mi WNW 8.1 mph - N/A   Clear
4:35 PM 19.4 °F 6.0 °F -2.2 °F 39% 30.26 in 10.0 mi WNW 13.8 mph - N/A   Clear
4:55 PM 17.6 °F 5.0 °F -2.2 °F 42% 30.27 in 10.0 mi NW 11.5 mph 18.4 mph N/A   Clear
5:15 PM 17.6 °F 8.2 °F -2.2 °F 42% 30.27 in 10.0 mi NW 6.9 mph - N/A   Clear
5:35 PM 17.6 °F 7.3 °F -2.2 °F 42% 30.27 in 10.0 mi NW 8.1 mph - N/A   Clear
5:55 PM 17.6 °F 7.3 °F -2.2 °F 42% 30.29 in 10.0 mi NW 8.1 mph - N/A   Clear
6:15 PM 15.8 °F 5.1 °F -2.2 °F 45% 30.29 in 10.0 mi NW 8.1 mph - N/A   Clear
6:35 PM 15.8 °F - -0.4 °F 49% 30.28 in 10.0 mi Calm Calm - N/A   Clear
6:55 PM 15.8 °F 3.4 °F -0.4 °F 49% 30.27 in 10.0 mi NNW 10.4 mph - N/A   Clear
7:15 PM 15.8 °F - -0.4 °F 49% 30.28 in 10.0 mi Calm Calm - N/A   Clear
7:35 PM 14.0 °F - 1.4 °F 57% 30.30 in 10.0 mi Calm Calm - N/A   Clear
7:55 PM 14.0 °F - -0.4 °F 53% 30.30 in 10.0 mi Calm Calm - N/A   Clear
8:15 PM 14.0 °F 5.1 °F 1.4 °F 57% 30.29 in 10.0 mi North 5.8 mph - N/A   Clear
8:35 PM 15.8 °F - -0.4 °F 49% 30.30 in 10.0 mi Calm Calm - N/A   Clear
8:55 PM 15.8 °F 10.2 °F -2.2 °F 45% 30.31 in 10.0 mi NNW 3.5 mph - N/A   Clear
9:15 PM 14.0 °F - -0.4 °F 53% 30.31 in 10.0 mi Calm Calm - N/A   Clear
9:35 PM 14.0 °F - -0.4 °F 53% 30.31 in 10.0 mi Calm Calm - N/A   Clear
9:55 PM 14.0 °F - -0.4 °F 53% 30.31 in 10.0 mi Calm Calm - N/A   Clear
10:15 PM 12.2 °F 6.1 °F 3.2 °F 67% 30.31 in 10.0 mi SSE 3.5 mph - N/A   Clear
10:35 PM 12.2 °F 6.1 °F -0.4 °F 57% 30.31 in 10.0 mi SSE 3.5 mph - N/A   Clear
10:55 PM 12.2 °F 4.3 °F 1.4 °F 62% 30.32 in 10.0 mi SSE 4.6 mph - N/A   Clear
11:15 PM 12.2 °F 6.1 °F 1.4 °F 62% 30.32 in 10.0 mi South 3.5 mph - N/A   Clear
11:35 PM 12.2 °F 2.9 °F 3.2 °F 67% 30.32 in 10.0 mi SSE 5.8 mph - N/A   Clear
11:55 PM 12.2 °F 4.3 °F 1.4 °F 62% 30.32 in 10.0 mi SSE 4.6 mph - N/A   Clear